Location: Melizzano
(41.1500°N, 14.5000°E)
Time: 18:37:55
(UTC+00:00)

Cosmos 1538 Rocket - Pass Details

Date: 11 May 2021
Orbit: 752 x 792 km, 74.0° (Epoch: 21 June)

Event Time Altitude Azimuth Distance (km) Brightness Sun altitude
Rises 20:09:19 0° 343° (NNW) 3,294 8.4 -19.0°
Reaches altitude 10° 20:11:46 10° 348° (NNW) 2,357 7.4 -19.3°
Maximum altitude 20:17:04 60° 68° (ENE) 896 4.2 -19.9°
Enters shadow 20:18:44 41° 127° (SE) 1,128 4.4 -20.2°
